owner,sensor,date,latitude,longitude,vertical_datum,direction_of_sea_water_velocity,sea_water_speed,upward_sea_water_velocity,qcFlag 
TABS,ioos:station:wmo:42044:1,2009-09-01T00:00:00Z,26.1914,-97.0507,2.0,29.68328123,1.151043005,-99999.0,'11133222,11111222,99999999' 
TABS,ioos:station:wmo:42044:1,2009-09-01T00:30:00Z,26.1914,-97.0507,2.0,55.1039653,3.426032691,-99999.0,'11133222,11111222,99999999' 
TABS,ioos:station:wmo:42044:1,2009-09-01T01:00:00Z,26.1914,-97.0507,2.0,131.5833146,2.847630594,-99999.0,'11133222,11111222,99999999' 
TABS,ioos:station:wmo:42044:1,2009-09-01T01:30:00Z,26.1914,-97.0507,2.0,217.1641775,2.334030848,-99999.0,'11133222,11111222,99999999' 
TABS,ioos:station:wmo:42044:1,2009-09-01T02:00:00Z,26.1914,-97.0507,2.0,297.2727277,1.811353085,-99999.0,'11133222,11111222,99999999' 
TABS,ioos:station:wmo:42044:1,2009-09-01T02:30:00Z,26.1914,-97.0507,2.0,106.8125869,1.452067492,-99999.0,'11133222,11111222,99999999' 
TABS,ioos:station:wmo:42044:1,2009-09-01T03:00:00Z,26.1914,-97.0507,2.0,61.44425257,1.673588958,-99999.0,'11133222,11111222,99999999' 
TABS,ioos:station:wmo:42044:1,2009-09-01T03:30:00Z,26.1914,-97.0507,2.0,45.67768311,5.38145891,-99999.0,'11133222,11111222,99999999' 
TABS,ioos:station:wmo:42044:1,2009-09-01T04:00:00Z,26.1914,-97.0507,2.0,130.4949984,3.511025491,-99999.0,'11133222,11111222,99999999' 
TABS,ioos:station:wmo:42044:1,2009-09-01T04:30:00Z,26.1914,-97.0507,2.0,104.9313823,1.397175723,-99999.0,'11133222,11111222,99999999' 
TABS,ioos:station:wmo:42044:1,2009-09-01T05:00:00Z,26.1914,-97.0507,2.0,53.58195378,4.312134042,-99999.0,'11133222,11111222,99999999' 
TABS,ioos:station:wmo:42044:1,2009-09-01T05:30:00Z,26.1914,-97.0507,2.0,64.95922601,7.229529722,-99999.0,'11133222,11111222,99999999' 
TABS,ioos:station:wmo:42044:1,2009-09-01T06:00:00Z,26.1914,-97.0507,2.0,103.6069141,4.208111215,-99999.0,'11133222,11111222,99999999' 
TABS,ioos:station:wmo:42044:1,2009-09-01T06:30:00Z,26.1914,-97.0507,2.0,40.04027916,5.316135815,-99999.0,'11133222,11111222,99999999' 
TABS,ioos:station:wmo:42044:1,2009-09-01T07:00:00Z,26.1914,-97.0507,2.0,65.27684453,10.01828828,-99999.0,'11111222,11111222,99999999' 
TABS,ioos:station:wmo:42044:1,2009-09-01T07:30:00Z,26.1914,-97.0507,2.0,94.32079485,2.256413083,-99999.0,'11133222,11111222,99999999' 
TABS,ioos:station:wmo:42044:1,2009-09-01T08:00:00Z,26.1914,-97.0507,2.0,36.97559416,7.598012898,-99999.0,'11133222,11111222,99999999' 
TABS,ioos:station:wmo:42044:1,2009-09-01T08:30:00Z,26.1914,-97.0507,2.0,91.23163505,18.14419191,-99999.0,'11111222,11111222,99999999' 
TABS,ioos:station:wmo:42044:1,2009-09-01T09:00:00Z,26.1914,-97.0507,2.0,106.0567301,15.546498,-99999.0,'11111222,11111222,99999999' 
TABS,ioos:station:wmo:42044:1,2009-09-01T09:30:00Z,26.1914,-97.0507,2.0,295.2089076,16.43523349,-99999.0,'11111222,11111222,99999999' 
TABS,ioos:station:wmo:42044:1,2009-09-01T10:00:00Z,26.1914,-97.0507,2.0,276.2168904,19.94729305,-99999.0,'11111222,11111222,99999999' 
TABS,ioos:station:wmo:42044:1,2009-09-01T10:30:00Z,26.1914,-97.0507,2.0,282.1218644,16.47736933,-99999.0,'11111222,11111222,99999999' 
TABS,ioos:station:wmo:42044:1,2009-09-01T11:00:00Z,26.1914,-97.0507,2.0,253.7404391,22.3228,-99999.0,'11111222,11111222,99999999' 
TABS,ioos:station:wmo:42044:1,2009-09-01T11:30:00Z,26.1914,-97.0507,2.0,231.8571778,17.4703091,-99999.0,'11111222,11111222,99999999' 
TABS,ioos:station:wmo:42044:1,2009-09-01T12:00:00Z,26.1914,-97.0507,2.0,235.3109514,16.8682216,-99999.0,'11111222,11111222,99999999' 
TABS,ioos:station:wmo:42044:1,2009-09-01T12:30:00Z,26.1914,-97.0507,2.0,239.8166613,14.59931505,-99999.0,'11111222,11111222,99999999' 
TABS,ioos:station:wmo:42044:1,2009-09-01T13:00:00Z,26.1914,-97.0507,2.0,211.5843579,13.1358479,-99999.0,'11111222,11111222,99999999' 
TABS,ioos:station:wmo:42044:1,2009-09-01T13:30:00Z,26.1914,-97.0507,2.0,210.6586449,15.47282133,-99999.0,'11111222,11111222,99999999' 
TABS,ioos:station:wmo:42044:1,2009-09-01T14:00:00Z,26.1914,-97.0507,2.0,217.8228392,15.50814625,-99999.0,'11111222,11111222,99999999' 
TABS,ioos:station:wmo:42044:1,2009-09-01T14:30:00Z,26.1914,-97.0507,2.0,223.1213779,15.31709176,-99999.0,'11111222,11111222,99999999' 
TABS,ioos:station:wmo:42044:1,2009-09-01T15:00:00Z,26.1914,-97.0507,2.0,219.8718406,15.42717408,-99999.0,'11111222,11111222,99999999' 
TABS,ioos:station:wmo:42044:1,2009-09-01T15:30:00Z,26.1914,-97.0507,2.0,234.3533391,13.48707529,-99999.0,'11111222,11111222,99999999' 
TABS,ioos:station:wmo:42044:1,2009-09-01T16:00:00Z,26.1914,-97.0507,2.0,217.6222825,12.94111664,-99999.0,'11111222,11111222,99999999' 
TABS,ioos:station:wmo:42044:1,2009-09-01T16:30:00Z,26.1914,-97.0507,2.0,233.3701302,12.87211327,-99999.0,'11111222,11111222,99999999' 
TABS,ioos:station:wmo:42044:1,2009-09-01T17:00:00Z,26.1914,-97.0507,2.0,248.3881735,15.12311145,-99999.0,'11111222,11111222,99999999' 
TABS,ioos:station:wmo:42044:1,2009-09-01T17:30:00Z,26.1914,-97.0507,2.0,252.3547751,9.402345452,-99999.0,'11133222,11111222,99999999' 
TABS,ioos:station:wmo:42044:1,2009-09-01T18:00:00Z,26.1914,-97.0507,2.0,265.0683199,14.19253325,-99999.0,'11111222,11111222,99999999' 
TABS,ioos:station:wmo:42044:1,2009-09-01T18:30:00Z,26.1914,-97.0507,2.0,258.4373533,12.02399684,-99999.0,'11111222,11111222,99999999' 
TABS,ioos:station:wmo:42044:1,2009-09-01T19:00:00Z,26.1914,-97.0507,2.0,266.3893412,11.59300651,-99999.0,'11111222,11111222,99999999' 
TABS,ioos:station:wmo:42044:1,2009-09-01T19:30:00Z,26.1914,-97.0507,2.0,247.6676513,14.23787203,-99999.0,'11111222,11111222,99999999' 
TABS,ioos:station:wmo:42044:1,2009-09-01T20:00:00Z,26.1914,-97.0507,2.0,242.4283798,11.96928152,-99999.0,'11111222,11111222,99999999' 
TABS,ioos:station:wmo:42044:1,2009-09-01T20:30:00Z,26.1914,-97.0507,2.0,235.440004,10.96491222,-99999.0,'11111222,11111222,99999999' 
TABS,ioos:station:wmo:42044:1,2009-09-01T21:00:00Z,26.1914,-97.0507,2.0,282.5608394,13.74905451,-99999.0,'11111222,11111222,99999999' 
TABS,ioos:station:wmo:42044:1,2009-09-01T21:30:00Z,26.1914,-97.0507,2.0,328.4629007,8.565068593,-99999.0,'11133222,11111222,99999999' 
TABS,ioos:station:wmo:42044:1,2009-09-01T22:00:00Z,26.1914,-97.0507,2.0,266.6368499,18.07111507,-99999.0,'11111222,11111222,99999999' 
TABS,ioos:station:wmo:42044:1,2009-09-01T22:30:00Z,26.1914,-97.0507,2.0,295.6115441,13.16332025,-99999.0,'11111222,11111222,99999999' 
TABS,ioos:station:wmo:42044:1,2009-09-01T23:00:00Z,26.1914,-97.0507,2.0,281.3959706,17.05623933,-99999.0,'11111222,11111222,99999999' 
TABS,ioos:station:wmo:42044:1,2009-09-01T23:30:00Z,26.1914,-97.0507,2.0,282.4940513,14.14495316,-99999.0,'11111222,11111222,99999999' 
TABS,ioos:station:wmo:42044:1,2009-09-02T00:00:00Z,26.1914,-97.0507,2.0,293.62715,12.65041501,-99999.0,'11111222,11111222,99999999' 
TABS,ioos:station:wmo:42044:1,2009-09-02T00:30:00Z,26.1914,-97.0507,2.0,295.9005,9.248999946,-99999.0,'11133222,11111222,99999999' 
TABS,ioos:station:wmo:42044:1,2009-09-02T01:00:00Z,26.1914,-97.0507,2.0,273.1430475,16.23441406,-99999.0,'11111222,11111222,99999999' 
TABS,ioos:station:wmo:42044:1,2009-09-02T01:30:00Z,26.1914,-97.0507,2.0,282.6513075,20.86658813,-99999.0,'11111222,11111222,99999999' 
TABS,ioos:station:wmo:42044:1,2009-09-02T02:00:00Z,26.1914,-97.0507,2.0,285.5639701,20.20069306,-99999.0,'11111222,11111222,99999999' 
TABS,ioos:station:wmo:42044:1,2009-09-02T02:30:00Z,26.1914,-97.0507,2.0,275.2463903,15.09322033,-99999.0,'11111222,11111222,99999999' 
TABS,ioos:station:wmo:42044:1,2009-09-02T03:00:00Z,26.1914,-97.0507,2.0,278.7574348,16.02682751,-99999.0,'11111222,11111222,99999999' 
TABS,ioos:station:wmo:42044:1,2009-09-02T03:30:00Z,26.1914,-97.0507,2.0,298.322518,12.68894401,-99999.0,'11111222,11111222,99999999' 
TABS,ioos:station:wmo:42044:1,2009-09-02T04:00:00Z,26.1914,-97.0507,2.0,301.6890113,15.72424879,-99999.0,'11111222,11111222,99999999' 
TABS,ioos:station:wmo:42044:1,2009-09-02T04:30:00Z,26.1914,-97.0507,2.0,276.8996539,10.072939,-99999.0,'11111222,11111222,99999999' 
TABS,ioos:station:wmo:42044:1,2009-09-02T05:00:00Z,26.1914,-97.0507,2.0,286.0500125,12.08088159,-99999.0,'11111222,11111222,99999999' 
TABS,ioos:station:wmo:42044:1,2009-09-02T05:30:00Z,26.1914,-97.0507,2.0,270.0982785,11.71001708,-99999.0,'11111222,11111222,99999999' 
TABS,ioos:station:wmo:42044:1,2009-09-02T06:00:00Z,26.1914,-97.0507,2.0,266.0522484,9.151710223,-99999.0,'11133222,11111222,99999999' 
TABS,ioos:station:wmo:42044:1,2009-09-02T06:30:00Z,26.1914,-97.0507,2.0,264.0695653,9.872831407,-99999.0,'11133222,11111222,99999999' 
TABS,ioos:station:wmo:42044:1,2009-09-02T07:00:00Z,26.1914,-97.0507,2.0,231.6466212,11.66790898,-99999.0,'11111222,11111222,99999999' 
TABS,ioos:station:wmo:42044:1,2009-09-02T07:30:00Z,26.1914,-97.0507,2.0,276.0566377,12.7008858,-99999.0,'11111222,11111222,99999999' 
TABS,ioos:station:wmo:42044:1,2009-09-02T08:00:00Z,26.1914,-97.0507,2.0,221.5151746,11.28507421,-99999.0,'11111222,11111222,99999999' 
TABS,ioos:station:wmo:42044:1,2009-09-02T08:30:00Z,26.1914,-97.0507,2.0,221.4522032,15.77041534,-99999.0,'11111222,11111222,99999999' 
TABS,ioos:station:wmo:42044:1,2009-09-02T09:00:00Z,26.1914,-97.0507,2.0,243.7791473,10.41132076,-99999.0,'11111222,11111222,99999999' 
TABS,ioos:station:wmo:42044:1,2009-09-02T09:30:00Z,26.1914,-97.0507,2.0,230.1013314,14.2338786,-99999.0,'11111222,11111222,99999999' 
TABS,ioos:station:wmo:42044:1,2009-09-02T10:00:00Z,26.1914,-97.0507,2.0,216.2606591,12.98473334,-99999.0,'11111222,11111222,99999999' 
TABS,ioos:station:wmo:42044:1,2009-09-02T10:30:00Z,26.1914,-97.0507,2.0,208.2556719,12.12476804,-99999.0,'11111222,11111222,99999999' 
TABS,ioos:station:wmo:42044:1,2009-09-02T11:00:00Z,26.1914,-97.0507,2.0,242.827851,8.868742865,-99999.0,'11133222,11111222,99999999' 
TABS,ioos:station:wmo:42044:1,2009-09-02T11:30:00Z,26.1914,-97.0507,2.0,248.4554744,13.23464015,-99999.0,'11111222,11111222,99999999' 
TABS,ioos:station:wmo:42044:1,2009-09-02T12:00:00Z,26.1914,-97.0507,2.0,235.3290103,11.83071426,-99999.0,'11111222,11111222,99999999' 
TABS,ioos:station:wmo:42044:1,2009-09-02T12:30:00Z,26.1914,-97.0507,2.0,234.4908545,11.53525466,-99999.0,'11111222,11111222,99999999' 
TABS,ioos:station:wmo:42044:1,2009-09-02T13:00:00Z,26.1914,-97.0507,2.0,224.8130542,10.85414667,-99999.0,'11111222,11111222,99999999' 
TABS,ioos:station:wmo:42044:1,2009-09-02T13:30:00Z,26.1914,-97.0507,2.0,211.4313344,13.23155698,-99999.0,'11111222,11111222,99999999' 
TABS,ioos:station:wmo:42044:1,2009-09-02T14:00:00Z,26.1914,-97.0507,2.0,206.174188,10.49634698,-99999.0,'11111222,11111222,99999999' 
TABS,ioos:station:wmo:42044:1,2009-09-02T14:30:00Z,26.1914,-97.0507,2.0,234.8270831,10.3985624,-99999.0,'11111222,11111222,99999999' 
TABS,ioos:station:wmo:42044:1,2009-09-02T15:00:00Z,26.1914,-97.0507,2.0,227.0957558,5.993204485,-99999.0,'11133222,11111222,99999999' 
TABS,ioos:station:wmo:42044:1,2009-09-02T15:30:00Z,26.1914,-97.0507,2.0,228.9310718,10.1071262,-99999.0,'11111222,11111222,99999999' 
TABS,ioos:station:wmo:42044:1,2009-09-02T16:00:00Z,26.1914,-97.0507,2.0,234.4887581,14.92619844,-99999.0,'11111222,11111222,99999999' 
TABS,ioos:station:wmo:42044:1,2009-09-02T16:30:00Z,26.1914,-97.0507,2.0,237.1729092,8.651531656,-99999.0,'11133222,11111222,99999999' 
TABS,ioos:station:wmo:42044:1,2009-09-02T17:00:00Z,26.1914,-97.0507,2.0,241.4053975,8.462115575,-99999.0,'11133222,11111222,99999999' 
TABS,ioos:station:wmo:42044:1,2009-09-02T17:30:00Z,26.1914,-97.0507,2.0,216.4804899,15.60835994,-99999.0,'11111222,11111222,99999999' 
TABS,ioos:station:wmo:42044:1,2009-09-02T18:00:00Z,26.1914,-97.0507,2.0,251.9000119,7.56429772,-99999.0,'11133222,11111222,99999999' 
TABS,ioos:station:wmo:42044:1,2009-09-02T18:30:00Z,26.1914,-97.0507,2.0,242.9400653,10.88111208,-99999.0,'11111222,11111222,99999999' 
TABS,ioos:station:wmo:42044:1,2009-09-02T19:00:00Z,26.1914,-97.0507,2.0,237.8229198,8.506521028,-99999.0,'11133222,11111222,99999999' 
TABS,ioos:station:wmo:42044:1,2009-09-02T19:30:00Z,26.1914,-97.0507,2.0,230.2392157,11.38248215,-99999.0,'11111222,11111222,99999999' 
TABS,ioos:station:wmo:42044:1,2009-09-02T20:00:00Z,26.1914,-97.0507,2.0,231.756475,13.10176324,-99999.0,'11111222,11111222,99999999' 
TABS,ioos:station:wmo:42044:1,2009-09-02T20:30:00Z,26.1914,-97.0507,2.0,243.8012772,13.97571107,-99999.0,'11111222,11111222,99999999' 
TABS,ioos:station:wmo:42044:1,2009-09-02T21:00:00Z,26.1914,-97.0507,2.0,239.2458781,6.551289949,-99999.0,'11133222,11111222,99999999' 
TABS,ioos:station:wmo:42044:1,2009-09-02T21:30:00Z,26.1914,-97.0507,2.0,217.5483966,8.778616064,-99999.0,'11133222,11111222,99999999' 
TABS,ioos:station:wmo:42044:1,2009-09-02T22:00:00Z,26.1914,-97.0507,2.0,225.2851407,9.934973578,-99999.0,'11133222,11111222,99999999' 
TABS,ioos:station:wmo:42044:1,2009-09-02T22:30:00Z,26.1914,-97.0507,2.0,239.4965376,6.186153894,-99999.0,'11133222,11111222,99999999' 
TABS,ioos:station:wmo:42044:1,2009-09-02T23:00:00Z,26.1914,-97.0507,2.0,227.4244357,8.691052871,-99999.0,'11133222,11111222,99999999' 
TABS,ioos:station:wmo:42044:1,2009-09-02T23:30:00Z,26.1914,-97.0507,2.0,166.4043059,5.360195892,-99999.0,'11133222,11111222,99999999' 
TABS,ioos:station:wmo:42044:1,2009-09-03T00:00:00Z,26.1914,-97.0507,2.0,236.8564039,5.231061078,-99999.0,'11133222,11111222,99999999' 
TABS,ioos:station:wmo:42044:1,2009-09-03T00:30:00Z,26.1914,-97.0507,2.0,189.1195845,10.72558157,-99999.0,'11111222,11111222,99999999' 
TABS,ioos:station:wmo:42044:1,2009-09-03T01:00:00Z,26.1914,-97.0507,2.0,209.5172388,7.814249804,-99999.0,'11133222,11111222,99999999' 
TABS,ioos:station:wmo:42044:1,2009-09-03T01:30:00Z,26.1914,-97.0507,2.0,210.5628113,12.50769763,-99999.0,'11111222,11111222,99999999' 
TABS,ioos:station:wmo:42044:1,2009-09-03T02:00:00Z,26.1914,-97.0507,2.0,191.2676746,10.69617689,-99999.0,'11111222,11111222,99999999' 
TABS,ioos:station:wmo:42044:1,2009-09-03T02:30:00Z,26.1914,-97.0507,2.0,206.8502662,11.66794755,-99999.0,'11111222,11111222,99999999' 
TABS,ioos:station:wmo:42044:1,2009-09-03T03:00:00Z,26.1914,-97.0507,2.0,209.060346,9.243727603,-99999.0,'11133222,11111222,99999999' 
TABS,ioos:station:wmo:42044:1,2009-09-03T03:30:00Z,26.1914,-97.0507,2.0,206.4779013,5.898754106,-99999.0,'11133222,11111222,99999999' 
TABS,ioos:station:wmo:42044:1,2009-09-03T04:00:00Z,26.1914,-97.0507,2.0,213.9462477,3.098031633,-99999.0,'11133222,11111222,99999999' 
TABS,ioos:station:wmo:42044:1,2009-09-03T04:30:00Z,26.1914,-97.0507,2.0,186.0722317,4.726520919,-99999.0,'11133222,11111222,99999999' 
TABS,ioos:station:wmo:42044:1,2009-09-03T05:00:00Z,26.1914,-97.0507,2.0,207.7407704,6.101278555,-99999.0,'11133222,11111222,99999999' 
TABS,ioos:station:wmo:42044:1,2009-09-03T05:30:00Z,26.1914,-97.0507,2.0,176.1408362,5.943475414,-99999.0,'11133222,11111222,99999999' 
TABS,ioos:station:wmo:42044:1,2009-09-03T06:00:00Z,26.1914,-97.0507,2.0,215.8191638,4.254715032,-99999.0,'11133222,11111222,99999999' 
TABS,ioos:station:wmo:42044:1,2009-09-03T06:30:00Z,26.1914,-97.0507,2.0,162.3497066,7.618641611,-99999.0,'11133222,11111222,99999999' 
TABS,ioos:station:wmo:42044:1,2009-09-03T07:00:00Z,26.1914,-97.0507,2.0,167.567958,6.410304205,-99999.0,'11133222,11111222,99999999' 
TABS,ioos:station:wmo:42044:1,2009-09-03T07:30:00Z,26.1914,-97.0507,2.0,97.25611078,7.046431721,-99999.0,'11133222,11111222,99999999' 
TABS,ioos:station:wmo:42044:1,2009-09-03T08:00:00Z,26.1914,-97.0507,2.0,144.5042313,1.584455743,-99999.0,'11133222,11111222,99999999' 
TABS,ioos:station:wmo:42044:1,2009-09-03T08:30:00Z,26.1914,-97.0507,2.0,109.6457298,4.788757668,-99999.0,'11133222,11111222,99999999' 
TABS,ioos:station:wmo:42044:1,2009-09-03T09:00:00Z,26.1914,-97.0507,2.0,119.7774914,8.698557352,-99999.0,'11133222,11111222,99999999' 
TABS,ioos:station:wmo:42044:1,2009-09-03T09:30:00Z,26.1914,-97.0507,2.0,99.18765974,7.202402377,-99999.0,'11133222,11111222,99999999' 
TABS,ioos:station:wmo:42044:1,2009-09-03T10:00:00Z,26.1914,-97.0507,2.0,115.9161148,10.66225586,-99999.0,'11111222,11111222,99999999' 
TABS,ioos:station:wmo:42044:1,2009-09-03T10:30:00Z,26.1914,-97.0507,2.0,132.5839224,12.91617978,-99999.0,'11111222,11111222,99999999' 
TABS,ioos:station:wmo:42044:1,2009-09-03T11:00:00Z,26.1914,-97.0507,2.0,134.0836737,7.517506235,-99999.0,'11133222,11111222,99999999' 
TABS,ioos:station:wmo:42044:1,2009-09-03T11:30:00Z,26.1914,-97.0507,2.0,109.0206656,11.44488095,-99999.0,'11111222,11111222,99999999' 
TABS,ioos:station:wmo:42044:1,2009-09-03T12:00:00Z,26.1914,-97.0507,2.0,100.6737502,14.30755395,-99999.0,'11111222,11111222,99999999' 
TABS,ioos:station:wmo:42044:1,2009-09-03T12:30:00Z,26.1914,-97.0507,2.0,81.61960682,12.62480495,-99999.0,'11111222,11111222,99999999' 
TABS,ioos:station:wmo:42044:1,2009-09-03T13:00:00Z,26.1914,-97.0507,2.0,120.2705573,17.4375371,-99999.0,'11111222,11111222,99999999' 
TABS,ioos:station:wmo:42044:1,2009-09-03T13:30:00Z,26.1914,-97.0507,2.0,107.4414392,16.41468854,-99999.0,'11111222,11111222,99999999' 
TABS,ioos:station:wmo:42044:1,2009-09-03T14:00:00Z,26.1914,-97.0507,2.0,100.8332478,15.32308389,-99999.0,'11111222,11111222,99999999' 
TABS,ioos:station:wmo:42044:1,2009-09-03T14:30:00Z,26.1914,-97.0507,2.0,114.5061859,19.79303413,-99999.0,'11111222,11111222,99999999' 
TABS,ioos:station:wmo:42044:1,2009-09-03T15:00:00Z,26.1914,-97.0507,2.0,125.5163347,12.53149632,-99999.0,'11111222,11111222,99999999' 
TABS,ioos:station:wmo:42044:1,2009-09-03T15:30:00Z,26.1914,-97.0507,2.0,137.7195679,11.62378596,-99999.0,'11111222,11111222,99999999' 
TABS,ioos:station:wmo:42044:1,2009-09-03T16:00:00Z,26.1914,-97.0507,2.0,136.6873829,12.72637026,-99999.0,'11111222,11111222,99999999' 
TABS,ioos:station:wmo:42044:1,2009-09-03T16:30:00Z,26.1914,-97.0507,2.0,106.4310748,11.6664519,-99999.0,'11111222,11111222,99999999' 
TABS,ioos:station:wmo:42044:1,2009-09-03T17:00:00Z,26.1914,-97.0507,2.0,125.2474926,9.183681179,-99999.0,'11133222,11111222,99999999' 
TABS,ioos:station:wmo:42044:1,2009-09-03T17:30:00Z,26.1914,-97.0507,2.0,137.3636195,10.62978833,-99999.0,'11111222,11111222,99999999' 
TABS,ioos:station:wmo:42044:1,2009-09-03T18:00:00Z,26.1914,-97.0507,2.0,131.034702,14.62261605,-99999.0,'11111222,11111222,99999999' 
TABS,ioos:station:wmo:42044:1,2009-09-03T18:30:00Z,26.1914,-97.0507,2.0,170.7556637,13.38381859,-99999.0,'11111222,11111222,99999999' 
TABS,ioos:station:wmo:42044:1,2009-09-03T19:00:00Z,26.1914,-97.0507,2.0,148.7825545,13.56395591,-99999.0,'11111222,11111222,99999999' 
TABS,ioos:station:wmo:42044:1,2009-09-03T19:30:00Z,26.1914,-97.0507,2.0,164.6235742,9.541535516,-99999.0,'11133222,11111222,99999999' 
TABS,ioos:station:wmo:42044:1,2009-09-03T20:00:00Z,26.1914,-97.0507,2.0,164.8106876,16.75532751,-99999.0,'11111222,11111222,99999999' 
TABS,ioos:station:wmo:42044:1,2009-09-03T20:30:00Z,26.1914,-97.0507,2.0,185.1551131,17.24977971,-99999.0,'11111222,11111222,99999999' 
TABS,ioos:station:wmo:42044:1,2009-09-03T21:00:00Z,26.1914,-97.0507,2.0,164.3575797,15.57690598,-99999.0,'11111222,11111222,99999999' 
TABS,ioos:station:wmo:42044:1,2009-09-03T21:30:00Z,26.1914,-97.0507,2.0,169.1142879,14.82678657,-99999.0,'11111222,11111222,99999999' 
TABS,ioos:station:wmo:42044:1,2009-09-03T22:00:00Z,26.1914,-97.0507,2.0,176.2822524,9.87076998,-99999.0,'11133222,11111222,99999999' 
TABS,ioos:station:wmo:42044:1,2009-09-03T22:30:00Z,26.1914,-97.0507,2.0,163.7804077,12.92440327,-99999.0,'11111222,11111222,99999999' 
TABS,ioos:station:wmo:42044:1,2009-09-03T23:00:00Z,26.1914,-97.0507,2.0,188.3764509,15.44476934,-99999.0,'11111222,11111222,99999999' 
TABS,ioos:station:wmo:42044:1,2009-09-03T23:30:00Z,26.1914,-97.0507,2.0,184.1708094,10.03658308,-99999.0,'11111222,11111222,99999999' 
TABS,ioos:station:wmo:42044:1,2009-09-04T00:00:00Z,26.1914,-97.0507,2.0,217.721806,5.91665446,-99999.0,'11133222,11111222,99999999' 
TABS,ioos:station:wmo:42044:1,2009-09-04T00:30:00Z,26.1914,-97.0507,2.0,187.6655501,10.64513504,-99999.0,'11111222,11111222,99999999' 
TABS,ioos:station:wmo:42044:1,2009-09-04T01:00:00Z,26.1914,-97.0507,2.0,224.5806014,13.53438584,-99999.0,'11111222,11111222,99999999' 
TABS,ioos:station:wmo:42044:1,2009-09-04T01:30:00Z,26.1914,-97.0507,2.0,233.563914,8.974257629,-99999.0,'11133222,11111222,99999999' 
TABS,ioos:station:wmo:42044:1,2009-09-04T02:00:00Z,26.1914,-97.0507,2.0,227.6253657,10.34168748,-99999.0,'11111222,11111222,99999999' 
TABS,ioos:station:wmo:42044:1,2009-09-04T02:30:00Z,26.1914,-97.0507,2.0,214.91675,3.756181572,-99999.0,'11133222,11111222,99999999' 
TABS,ioos:station:wmo:42044:1,2009-09-04T03:00:00Z,26.1914,-97.0507,2.0,261.0119628,5.953091634,-99999.0,'11133222,11111222,99999999' 
TABS,ioos:station:wmo:42044:1,2009-09-04T03:30:00Z,26.1914,-97.0507,2.0,250.345801,8.473659186,-99999.0,'11133222,11111222,99999999' 
TABS,ioos:station:wmo:42044:1,2009-09-04T04:00:00Z,26.1914,-97.0507,2.0,307.9029284,9.099478007,-99999.0,'11133222,11111222,99999999' 
TABS,ioos:station:wmo:42044:1,2009-09-04T04:30:00Z,26.1914,-97.0507,2.0,230.2713883,5.695085601,-99999.0,'11133222,11111222,99999999' 
TABS,ioos:station:wmo:42044:1,2009-09-04T05:00:00Z,26.1914,-97.0507,2.0,298.0206445,1.937059627,-99999.0,'11133222,11111222,99999999' 
TABS,ioos:station:wmo:42044:1,2009-09-04T05:30:00Z,26.1914,-97.0507,2.0,260.6712097,3.516503946,-99999.0,'11133222,11111222,99999999' 
TABS,ioos:station:wmo:42044:1,2009-09-04T06:00:00Z,26.1914,-97.0507,2.0,201.0065298,8.03395295,-99999.0,'11133222,11111222,99999999' 
TABS,ioos:station:wmo:42044:1,2009-09-04T06:30:00Z,26.1914,-97.0507,2.0,250.9583929,7.172447281,-99999.0,'11133222,11111222,99999999' 
TABS,ioos:station:wmo:42044:1,2009-09-04T07:00:00Z,26.1914,-97.0507,2.0,263.6037573,6.822462898,-99999.0,'11133222,11111222,99999999' 
TABS,ioos:station:wmo:42044:1,2009-09-04T07:30:00Z,26.1914,-97.0507,2.0,168.6321064,5.834457987,-99999.0,'11133222,11111222,99999999' 
TABS,ioos:station:wmo:42044:1,2009-09-04T08:00:00Z,26.1914,-97.0507,2.0,210.4394427,3.375233325,-99999.0,'11133222,11111222,99999999' 
TABS,ioos:station:wmo:42044:1,2009-09-04T08:30:00Z,26.1914,-97.0507,2.0,128.0469536,1.752369824,-99999.0,'11133222,11111222,99999999' 
TABS,ioos:station:wmo:42044:1,2009-09-04T09:00:00Z,26.1914,-97.0507,2.0,214.7366357,6.072207177,-99999.0,'11133222,11111222,99999999' 
TABS,ioos:station:wmo:42044:1,2009-09-04T09:30:00Z,26.1914,-97.0507,2.0,83.35473733,2.073933461,-99999.0,'11133222,11111222,99999999' 
TABS,ioos:station:wmo:42044:1,2009-09-04T10:00:00Z,26.1914,-97.0507,2.0,159.4193645,5.490400714,-99999.0,'11133222,11111222,99999999' 
TABS,ioos:station:wmo:42044:1,2009-09-04T10:30:00Z,26.1914,-97.0507,2.0,98.57521259,5.096979498,-99999.0,'11133222,11111222,99999999' 
TABS,ioos:station:wmo:42044:1,2009-09-04T11:00:00Z,26.1914,-97.0507,2.0,330.050144,2.423654266,-99999.0,'11133222,11111222,99999999' 
TABS,ioos:station:wmo:42044:1,2009-09-04T11:30:00Z,26.1914,-97.0507,2.0,150.128978,6.204232426,-99999.0,'11133222,11111222,99999999' 
TABS,ioos:station:wmo:42044:1,2009-09-04T12:00:00Z,26.1914,-97.0507,2.0,29.79475799,1.428880681,-99999.0,'11133222,11111222,99999999' 
TABS,ioos:station:wmo:42044:1,2009-09-04T12:30:00Z,26.1914,-97.0507,2.0,192.4205523,9.205460336,-99999.0,'11133222,11111222,99999999' 
TABS,ioos:station:wmo:42044:1,2009-09-04T13:00:00Z,26.1914,-97.0507,2.0,106.5570327,2.702036269,-99999.0,'11133222,11111222,99999999' 
TABS,ioos:station:wmo:42044:1,2009-09-04T13:30:00Z,26.1914,-97.0507,2.0,179.9240017,7.560006614,-99999.0,'11133222,11111222,99999999' 
TABS,ioos:station:wmo:42044:1,2009-09-04T14:00:00Z,26.1914,-97.0507,2.0,201.1195963,7.49333704,-99999.0,'11133222,11111222,99999999' 
TABS,ioos:station:wmo:42044:1,2009-09-04T14:30:00Z,26.1914,-97.0507,2.0,235.8937661,5.350224294,-99999.0,'11133222,11111222,99999999' 
TABS,ioos:station:wmo:42044:1,2009-09-04T15:00:00Z,26.1914,-97.0507,2.0,236.192147,9.471525748,-99999.0,'11133222,11111222,99999999' 
TABS,ioos:station:wmo:42044:1,2009-09-04T15:30:00Z,26.1914,-97.0507,2.0,218.1235681,8.682079244,-99999.0,'11133222,11111222,99999999' 
TABS,ioos:station:wmo:42044:1,2009-09-04T16:00:00Z,26.1914,-97.0507,2.0,230.9527344,9.476840191,-99999.0,'11133222,11111222,99999999' 